Wind_Speed
3 3 3 3 4 4 3 3 2 2 2 2 2 2 3 3 4 5 5 5 6 7 7 7 8 8 8 8 9 9 9 9 9 10 10 10 10 10 10 10 10 10 10
4 4 3 3 3 3 3 3 2 2 2 2 2 2 3 4 4 5 5 6 6 7 7 8 8 9 9 9 9 9 9 9 10 10 10 10 10 11 11 11 11 10 10
5 4 3 3 3 2 2 2 3 3 3 3 3 4 4 5 5 5 6 6 7 8 8 8 8 8 9 9 9 9 9 9 10 10 10 10 10 11 11 11 11 9 9
5 5 5 4 4 3 3 3 3 4 4 4 4 5 5 6 6 6 7 7 8 8 9 9 9 9 9 10 9 9 9 9 10 11 10 10 10 9 9 10 11 10 9
6 5 5 6 5 5 4 4 5 4 5 5 6 6 7 7 7 7 8 8 9 9 9 9 9 9 9 9 10 9 9 10 10 10 9 9 8 9 8 9 10 10 9
6 6 6 6 6 6 6 5 5 6 6 7 7 8 8 8 8 9 9 9 9 10 9 9 9 10 9 9 9 9 10 10 10 10 9 9 9 9 9 9 8 9 9
7 7 7 8 8 8 7 7 7 7 8 8 9 9 9 9 9 9 9 10 10 10 10 10 10 10 9 9 10 10 10 11 11 10 10 10 9 9 9 10 9 9 9
8 8 8 8 9 9 10 10 9 8 9 9 9 9 10 10 10 10 10 11 11 11 11 11 11 11 10 10 10 10 11 11 11 11 11 11 11 11 10 10 10 9 9
8 8 8 9 10 10 10 10 10 10 10 10 10 10 10 10 11 12 12 12 12 12 12 12 12 11 11 11 11 11 11 11 11 10 10 10 11 11 10 10 9 9 10
10 10 10 10 11 11 12 12 11 11 11 11 11 11 11 12 12 13 13 13 13 13 13 12 12 12 12 12 12 12 12 11 11 11 11 11 11 11 10 10 10 11 11
12 12 12 12 12 12 13 13 12 12 12 12 12 12 12 13 13 14 14 14 14 14 14 14 13 13 13 13 13 13 13 12 12 12 12 12 12 12 12 12 11 12 12
13 14 14 14 13 13 13 14 14 14 13 14 14 14 14 14 14 15 15 15 15 15 15 15 15 15 15 14 14 14 14 13 13 13 13 14 13 13 13 12 12 12 12
14 14 15 15 15 15 14 14 14 14 15 15 15 15 15 15 15 15 16 16 15 15 16 16 16 16 16 16 16 15 15 15 15 15 15 15 14 14 14 13 13 13 13
16 16 16 16 16 16 16 15 15 15 15 15 16 16 17 17 17 17 16 17 17 17 17 16 17 16 17 16 16 17 17 17 16 16 16 16 15 15 14 14 14 13 13
17 18 18 17 18 18 17 17 16 16 16 16 16 17 17 18 18 18 18 18 18 17 17 17 17 17 17 17 17 17 18 18 17 17 17 17 16 15 15 14 14 14 14
19 19 19 18 19 19 19 19 18 17 17 17 17 18 19 19 19 19 19 19 19 19 19 18 18 18 17 18 18 18 18 18 18 17 17 17 17 17 16 15 15 14 14
21 21 21 20 20 20 20 20 20 20 19 19 19 19 20 20 20 20 20 20 20 20 19 19 19 19 19 19 19 20 20 19 19 19 18 18 18 18 17 17 16 16 15
22 22 22 22 22 22 22 21 20 21 21 20 20 20 21 21 21 21 21 20 20 20 20 19 19 20 20 20 20 19 19 19 20 19 19 19 19 19 19 18 17 16 16
23 23 24 24 24 24 23 22 22 22 23 23 22 22 23 23 23 22 22 22 21 21 21 21 20 20 20 20 20 20 20 19 20 20 20 20 19 19 18 18 18 18 18
23 23 24 25 25 25 24 24 24 24 24 24 25 25 25 25 25 24 24 24 23 23 23 22 22 21 21 21 21 21 21 22 21 21 20 20 20 20 20 20 19 19 19
22 22 23 23 24 24 25 25 26 25 25 25 25 26 26 26 26 25 25 25 24 23 24 24 24 23 22 22 22 22 21 21 21 21 21 22 22 22 21 21 21 20 20
22 22 22 23 23 24 24 25 26 26 26 26 27 27 27 26 26 25 25 25 24 24 23 23 23 24 24 23 22 21 22 21 22 22 22 23 23 22 22 22 21 21 21
23 23 23 23 24 24 24 24 25 26 26 27 27 27 28 27 26 26 26 26 25 25 25 24 24 25 25 25 24 23 23 24 23 24 24 23 23 23 24 24 24 23 23
24 25 25 25 25 26 26 25 25 25 26 26 27 27 27 28 28 27 27 26 26 26 26 26 26 26 25 26 25 25 25 25 25 25 25 24 24 25 25 25 26 25 24
25 26 26 26 26 26 26 26 26 26 26 26 26 27 27 27 28 27 27 27 26 27 27 27 27 27 27 27 26 26 26 26 25 25 25 25 25 25 26 26 26 26 25
28 28 28 28 28 27 27 27 27 27 27 27 27 27 28 28 28 28 28 28 28 28 28 28 27 28 28 27 27 27 27 27 27 27 27 27 26 27 26 26 26 26 26
Wind_Direction
300 311 317 317 321 332 341 334 324 333 325 325 312 318 316 301 285 285 283 278 279 280 274 269 272 274 275 272 272 269 269 269 268 267 269 273 274 275 273 272 276 277 278
286 295 303 308 314 325 324 326 320 309 311 307 309 321 321 311 301 291 289 288 285 283 281 276 276 277 281 278 273 267 265 265 267 269 271 272 274 273 272 274 275 276 280
274 276 281 290 296 309 314 309 307 305 306 301 301 305 307 309 304 297 292 292 290 284 284 282 281 285 285 287 280 272 268 266 268 269 274 271 271 274 274 277 281 282 284
276 269 268 267 273 283 290 293 298 296 292 287 293 300 302 303 301 296 291 291 293 292 290 290 286 286 284 281 278 272 268 267 267 270 274 273 272 273 275 277 279 281 285
273 271 265 263 268 277 282 283 285 285 282 282 288 293 295 294 296 297 294 293 294 296 293 291 287 287 288 282 278 274 270 268 267 266 270 270 271 272 276 280 281 282 284
268 273 270 264 265 272 276 279 278 278 279 284 287 289 291 291 290 292 292 292 291 293 293 289 286 288 287 286 282 276 271 269 266 265 266 265 269 272 274 281 285 288 286
267 272 271 268 268 271 275 279 276 278 281 284 285 287 289 289 286 288 290 293 292 291 289 286 284 288 287 290 284 279 274 269 264 263 263 263 265 269 272 278 283 288 288
268 272 271 271 271 271 274 276 276 277 279 280 281 284 287 287 286 286 288 291 292 289 287 286 283 284 283 286 285 279 275 272 268 265 262 261 260 263 267 273 279 283 286
266 271 272 272 272 273 275 278 278 275 278 279 280 281 285 286 286 286 287 288 288 287 286 286 281 280 277 279 282 280 276 272 267 263 259 259 259 263 267 271 278 282 283
273 275 276 275 277 276 275 276 277 275 276 279 280 282 284 285 285 285 286 285 283 284 285 284 282 276 275 274 276 278 278 271 266 264 260 258 261 266 272 276 279 279 279
277 275 276 277 278 276 278 274 273 273 275 277 277 280 282 283 282 283 287 287 283 280 281 282 280 277 275 272 273 274 274 272 268 265 261 261 266 270 271 274 278 279 279
275 276 275 275 275 277 279 277 274 272 275 276 277 278 280 281 281 282 286 285 283 280 278 279 277 276 275 273 272 273 271 270 266 266 266 265 266 268 270 271 273 275 277
275 276 276 275 275 274 275 277 278 279 279 280 278 277 278 279 279 281 283 284 282 281 279 277 277 276 275 272 270 269 269 270 267 266 269 267 266 269 270 270 271 273 272
276 276 276 275 274 273 273 275 277 281 283 284 283 279 278 277 279 279 280 281 282 280 280 278 276 274 275 274 272 269 268 268 265 266 268 268 267 267 268 269 271 271 270
279 278 277 275 275 274 274 274 276 279 281 282 283 280 278 278 281 280 282 281 281 282 281 280 277 273 272 275 273 272 271 268 265 265 268 268 267 268 267 266 268 269 271
278 277 277 276 276 276 274 273 274 275 277 279 281 282 281 282 282 283 282 281 281 281 281 281 278 273 271 273 273 272 271 268 267 266 265 266 265 264 266 267 266 269 271
276 275 275 274 275 276 274 273 272 272 274 276 277 280 281 281 280 281 280 279 279 281 280 278 276 273 272 273 272 271 270 267 265 264 264 265 266 266 265 266 265 267 270
273 271 273 275 277 277 275 274 273 274 275 274 275 278 280 281 280 279 278 278 278 279 279 278 273 272 270 270 270 270 270 266 264 262 263 265 267 266 265 264 263 265 267
272 271 272 274 275 275 275 274 274 275 274 275 275 277 278 279 281 280 277 276 276 277 278 275 274 271 270 270 271 270 269 267 266 263 263 263 265 266 265 264 264 265 266
274 274 274 275 274 273 273 273 274 275 275 275 276 277 278 278 279 278 277 275 275 275 274 272 272 273 273 273 273 272 269 267 266 263 263 264 263 263 262 263 264 265 265
275 275 276 277 276 276 273 273 273 273 273 275 277 277 278 278 278 278 275 274 274 274 273 272 271 272 273 274 274 273 270 266 265 263 264 265 264 263 263 261 262 263 263
276 276 276 278 277 275 273 273 273 274 274 275 276 276 277 276 276 277 277 274 273 272 273 274 273 272 272 272 273 274 274 269 267 267 267 265 263 262 262 261 262 263 264
277 278 278 278 277 275 274 274 274 274 274 274 275 275 275 274 276 277 277 275 273 271 270 272 273 271 270 270 270 271 270 269 270 270 268 268 266 265 263 261 260 261 263
279 279 279 278 277 275 274 275 274 274 274 275 275 275 275 275 276 276 276 276 276 275 273 271 270 272 271 269 270 269 269 267 268 269 268 268 267 265 265 265 264 262 263
281 280 280 278 278 276 275 274 274 274 274 275 276 277 279 278 278 277 276 276 276 274 273 272 272 272 272 270 268 267 267 267 268 268 267 267 267 268 267 265 264 263 264
281 280 279 278 277 275 274 273 273 274 274 275 275 276 278 278 279 278 276 276 275 273 273 272 270 269 270 269 267 267 266 266 266 269 268 267 267 267 266 265 265 263 263
Height
5884 5883 5883 5882 5881 5880 5880 5879 5879 5878 5878 5877 5877 5877 5876 5876 5876 5875 5875 5875 5874 5874 5873 5873 5873 5873 5872 5872 5872 5871 5871 5871 5871 5870 5870 5870 5870 5870 5870 5870 5869 5869 5868
5883 5882 5882 5881 5881 5880 5880 5879 5879 5878 5877 5877 5876 5876 5876 5875 5875 5874 5874 5873 5873 5872 5872 5872 5871 5871 5871 5870 5870 5870 5869 5869 5869 5869 5869 5869 5869 5868 5868 5868 5867 5867 5866
5882 5881 5881 5880 5880 5879 5879 5878 5878 5877 5877 5876 5876 5875 5875 5874 5874 5873 5873 5872 5871 5871 5870 5870 5870 5869 5869 5868 5868 5867 5867 5867 5867 5867 5867 5867 5867 5866 5866 5866 5865 5865 5864
5880 5880 5880 5879 5879 5879 5878 5878 5877 5876 5876 5875 5875 5874 5874 5873 5872 5872 5871 5870 5870 5869 5868 5868 5868 5867 5867 5866 5866 5866 5865 5865 5865 5865 5865 5865 5865 5864 5864 5864 5863 5863 5862
5878 5878 5878 5878 5878 5877 5877 5877 5876 5875 5875 5874 5874 5873 5872 5872 5871 5870 5869 5869 5868 5867 5867 5866 5866 5865 5865 5864 5864 5863 5863 5863 5863 5863 5863 5863 5863 5863 5862 5862 5861 5861 5860
5877 5877 5877 5876 5876 5876 5875 5875 5874 5874 5873 5873 5872 5871 5871 5870 5869 5869 5868 5867 5866 5866 5865 5864 5864 5863 5863 5862 5862 5861 5861 5861 5861 5861 5861 5861 5861 5861 5860 5860 5859 5859 5858
5875 5875 5875 5875 5874 5874 5874 5873 5873 5872 5872 5871 5870 5869 5869 5868 5867 5866 5866 5865 5864 5864 5863 5862 5862 5861 5861 5860 5860 5859 5859 5859 5859 5859 5859 5859 5859 5858 5858 5858 5857 5857 5856
5873 5873 5873 5872 5872 5872 5872 5871 5870 5870 5869 5868 5868 5867 5866 5866 5865 5864 5864 5863 5862 5862 5861 5860 5860 5859 5859 5858 5858 5857 5857 5857 5856 5856 5856 5856 5856 5856 5856 5856 5855 5855 5854
5871 5871 5870 5870 5870 5870 5869 5868 5868 5867 5867 5866 5865 5865 5864 5863 5863 5862 5861 5860 5860 5859 5858 5858 5857 5857 5856 5856 5855 5855 5855 5854 5854 5854 5854 5854 5854 5854 5853 5853 5853 5852 5852
5869 5869 5868 5868 5867 5866 5866 5865 5865 5864 5864 5863 5862 5862 5861 5860 5860 5859 5859 5857 5857 5856 5856 5855 5854 5854 5854 5853 5853 5852 5852 5852 5852 5851 5851 5851 5852 5851 5851 5851 5850 5850 5850
5867 5866 5866 5865 5864 5864 5863 5862 5862 5861 5861 5860 5859 5858 5858 5857 5856 5856 5855 5854 5854 5853 5852 5852 5851 5851 5850 5850 5850 5849 5849 5849 5849 5849 5848 5848 5849 5849 5848 5848 5848 5848 5847
5863 5863 5862 5862 5861 5861 5860 5859 5858 5858 5857 5856 5855 5855 5854 5853 5852 5852 5851 5851 5850 5849 5849 5848 5848 5847 5847 5846 5846 5846 5846 5846 5846 5846 5846 5846 5846 5845 5845 5845 5845 5845 5844
5860 5859 5859 5858 5858 5857 5856 5856 5855 5854 5853 5853 5852 5851 5850 5849 5849 5848 5847 5847 5846 5846 5845 5844 5844 5843 5843 5843 5843 5843 5843 5843 5843 5843 5842 5842 5842 5842 5842 5842 5842 5842 5841
5856 5855 5854 5854 5854 5853 5853 5852 5851 5850 5849 5848 5848 5847 5846 5845 5845 5844 5843 5843 5842 5841 5841 5840 5839 5839 5839 5838 5838 5839 5839 5839 5839 5839 5839 5839 5839 5838 5838 5838 5838 5838 5838
5850 5851 5850 5850 5849 5849 5848 5847 5847 5846 5845 5844 5844 5843 5842 5841 5840 5840 5839 5838 5838 5837 5836 5835 5835 5834 5834 5834 5834 5834 5834 5834 5834 5835 5835 5835 5834 5835 5835 5835 5835 5835 5834
5846 5846 5846 5845 5845 5844 5843 5843 5842 5841 5841 5840 5839 5838 5837 5837 5836 5835 5834 5834 5833 5832 5831 5831 5830 5830 5830 5830 5830 5830 5830 5830 5830 5830 5830 5830 5830 5831 5831 5831 5831 5831 5831
5841 5841 5840 5840 5839 5839 5838 5837 5837 5836 5836 5835 5834 5833 5833 5832 5831 5830 5829 5829 5828 5827 5826 5826 5825 5825 5825 5825 5825 5825 5825 5825 5825 5825 5826 5826 5826 5826 5827 5827 5827 5827 5827
5835 5835 5835 5834 5834 5833 5832 5832 5831 5831 5830 5829 5829 5828 5827 5826 5826 5825 5824 5823 5823 5822 5821 5821 5820 5820 5820 5820 5820 5820 5820 5820 5820 5820 5821 5821 5822 5822 5822 5822 5822 5822 5822
5829 5829 5828 5828 5827 5826 5826 5826 5825 5825 5824 5823 5823 5822 5821 5821 5820 5819 5818 5818 5817 5817 5816 5815 5815 5814 5814 5814 5814 5814 5814 5814 5815 5815 5816 5816 5816 5817 5817 5817 5818 5818 5818
5822 5822 5821 5821 5820 5819 5819 5819 5819 5818 5818 5817 5816 5815 5815 5814 5814 5813 5812 5811 5811 5811 5810 5810 5809 5809 5809 5808 5809 5809 5809 5809 5809 5810 5811 5811 5811 5812 5812 5813 5813 5813 5813
5816 5815 5815 5814 5813 5813 5812 5812 5811 5811 5810 5810 5809 5809 5808 5807 5807 5806 5805 5805 5804 5804 5803 5803 5803 5803 5803 5803 5803 5803 5803 5803 5804 5805 5805 5806 5806 5806 5806 5807 5807 5808 5808
5810 5809 5808 5807 5806 5806 5805 5804 5804 5803 5803 5803 5802 5802 5801 5800 5799 5799 5798 5798 5798 5797 5797 5796 5796 5796 5797 5797 5797 5797 5797 5798 5799 5799 5799 5799 5800 5800 5800 5801 5801 5802 5802
5804 5803 5802 5801 5800 5799 5798 5797 5796 5796 5795 5795 5795 5794 5793 5793 5792 5791 5791 5790 5790 5790 5790 5790 5790 5790 5790 5790 5791 5791 5791 5791 5792 5792 5793 5793 5793 5794 5794 5794 5795 5795 5796
5797 5796 5795 5793 5792 5792 5791 5790 5789 5789 5788 5787 5787 5786 5786 5785 5784 5783 5783 5783 5783 5783 5783 5783 5783 5783 5783 5783 5784 5784 5784 5784 5785 5785 5786 5786 5787 5787 5787 5788 5788 5788 5789
5790 5789 5787 5786 5785 5784 5783 5783 5782 5781 5780 5780 5779 5779 5778 5777 5776 5776 5776 5775 5775 5775 5775 5775 5775 5776 5776 5776 5776 5777 5777 5778 5778 5779 5779 5779 5779 5779 5780 5780 5781 5781 5782
5782 5781 5780 5778 5777 5776 5775 5775 5774 5773 5773 5772 5772 5771 5770 5769 5769 5768 5767 5768 5768 5767 5767 5768 5768 5768 5768 5768 5769 5769 5769 5770 5770 5771 5771 5771 5771 5772 5772 5773 5773 5773 5774